,,,PA_Meas_PMT16A,,PR_Meas_QMR101_102,,RH_Meas_QMH101,,SR_Meas_QMS101,,TA_Meas_QMH101,,GenWind,,GenWind,
date,time,status,PA,status,PR,status,RH,status,SR,status,TA,status,DirAvg,status,SpdAvg,
2009-11-19, 00:00:04,VALID,1003,VALID,0,VALID,85.5808,VALID,0.100563,VALID,25.8629,VALID,351,VALID,2.11211,
2009-11-19, 00:01:04,VALID,1003.02,VALID,0,VALID,85.7486,VALID,0.100563,VALID,25.8239,VALID,341,VALID,0.880859,
2009-11-19, 00:02:04,VALID,1003.01,VALID,0,VALID,85.6342,VALID,0,VALID,25.785,VALID,342,VALID,0.810547,
2009-11-19, 00:03:04,VALID,1003.03,VALID,0,VALID,85.947,VALID,0.100563,VALID,25.746,VALID,331,VALID,0.61875,
2009-11-19, 00:04:04,VALID,1003.02,VALID,0,VALID,85.9927,VALID,0.100563,VALID,25.7265,VALID,274,VALID,0.778906,
2009-11-19, 00:05:04,VALID,1003.04,VALID,0,VALID,85.9165,VALID,0,VALID,25.7071,VALID,301,VALID,0.682813,
2009-11-19, 00:06:04,VALID,1003.04,VALID,0,VALID,85.9622,VALID,0,VALID,25.6876,VALID,290,VALID,0.801172,
2009-11-19, 00:07:04,VALID,1003.01,VALID,0,VALID,85.8631,VALID,0,VALID,25.6681,VALID,358,VALID,0.782812,
2009-11-19, 00:08:04,VALID,1003,VALID,0,VALID,85.9546,VALID,0,VALID,25.67,VALID,347,VALID,0.237109,
2009-11-19, 00:09:04,VALID,1003,VALID,0,VALID,86.0843,VALID,0,VALID,25.6506,VALID,270,VALID,0.414453,
2009-11-19, 00:10:04,VALID,1002.98,VALID,0,VALID,85.8783,VALID,0,VALID,25.6311,VALID,304,VALID,0.838281,
2009-11-19, 00:11:04,VALID,1002.95,VALID,0,VALID,85.9775,VALID,0,VALID,25.5707,VALID,274,VALID,0.841406,
2009-11-19, 00:12:04,VALID,1002.93,VALID,0,VALID,85.947,VALID,0,VALID,25.5707,VALID,296,VALID,0.545313,
2009-11-19, 00:13:04,VALID,1002.93,VALID,0,VALID,86.2369,VALID,0,VALID,25.5318,VALID,258,VALID,0.192578,
2009-11-19, 00:14:04,VALID,1002.93,VALID,0,VALID,86.336,VALID,0,VALID,25.5318,VALID,274,VALID,0.849219,
2009-11-19, 00:15:04,VALID,1002.91,VALID,0,VALID,86.4276,VALID,0,VALID,25.4928,VALID,283,VALID,0.451562,
2009-11-19, 00:16:04,VALID,1002.89,VALID,0,VALID,86.2369,VALID,0,VALID,25.4928,VALID,267,VALID,0.652344,
2009-11-19, 00:17:04,VALID,1002.86,VALID,0,VALID,86.1072,VALID,0,VALID,25.4734,VALID,328,VALID,0.7375,
2009-11-19, 00:18:04,VALID,1002.81,VALID,0,VALID,86.2521,VALID,0.100563,VALID,25.4539,VALID,290,VALID,0.538281,
2009-11-19, 00:19:04,VALID,1002.8,VALID,0,VALID,86.3742,VALID,0,VALID,25.4149,VALID,283,VALID,0.0515625,
2009-11-19, 00:20:04,VALID,1002.73,VALID,0,VALID,86.4962,VALID,0.100563,VALID,25.3955,VALID,255,VALID,0.227734,
2009-11-19, 00:21:04,VALID,1002.73,VALID,0,VALID,86.2064,VALID,0,VALID,25.3565,VALID,290,VALID,0.59375,
2009-11-19, 00:22:04,VALID,1002.69,VALID,0,VALID,86.1758,VALID,0,VALID,25.337,VALID,328,VALID,0.532812,
2009-11-19, 00:23:04,VALID,1002.64,VALID,0,VALID,86.3666,VALID,0,VALID,25.3584,VALID,258,VALID,0.258594,
2009-11-19, 00:24:04,VALID,1002.58,VALID,0,VALID,86.481,VALID,0.100563,VALID,25.337,VALID,258,VALID,0.2875,
2009-11-19, 00:25:04,VALID,1002.6,VALID,0,VALID,86.4657,VALID,0,VALID,25.3,VALID,259,VALID,0.280859,
2009-11-19, 00:26:04,VALID,1002.6,VALID,0,VALID,86.5344,VALID,0.100563,VALID,25.2786,VALID,335,VALID,0.446484,
2009-11-19, 00:27:04,VALID,1002.64,VALID,0,VALID,86.5191,VALID,0.100563,VALID,25.2786,VALID,336,VALID,0.175391,
2009-11-19, 00:28:04,VALID,1002.62,VALID,0,VALID,86.7099,VALID,0,VALID,25.3019,VALID,336,VALID,0.201172,
2009-11-19, 00:29:04,VALID,1002.64,VALID,0,VALID,86.5954,VALID,0,VALID,25.2806,VALID,273,VALID,0.471484,
2009-11-19, 00:30:04,VALID,1002.68,VALID,0,VALID,86.4886,VALID,0,VALID,25.2611,VALID,294,VALID,0.478906,
2009-11-19, 00:31:04,VALID,1002.68,VALID,0,VALID,86.5496,VALID,0,VALID,25.2397,VALID,311,VALID,0.396875,
2009-11-19, 00:32:04,VALID,1002.68,VALID,0,VALID,86.5725,VALID,0,VALID,25.2806,VALID,300,VALID,0.38125,
2009-11-19, 00:33:04,VALID,1002.67,VALID,0,VALID,86.481,VALID,0,VALID,25.2806,VALID,295,VALID,0.853125,
2009-11-19, 00:34:04,VALID,1002.68,VALID,0,VALID,86.3666,VALID,0,VALID,25.2611,VALID,300,VALID,0.660547,
2009-11-19, 00:35:04,VALID,1002.65,VALID,0,VALID,86.4581,VALID,0,VALID,25.2611,VALID,270,VALID,0.179297,
2009-11-19, 00:36:04,VALID,1002.68,VALID,0,VALID,86.5573,VALID,0,VALID,25.2806,VALID,333,VALID,0.0867188,
2009-11-19, 00:37:04,VALID,1002.66,VALID,0,VALID,86.5115,VALID,0,VALID,25.2611,VALID,325,VALID,0.510547,
2009-11-19, 00:38:04,VALID,1002.68,VALID,0,VALID,86.5573,VALID,0,VALID,25.2397,VALID,1,VALID,0.166016,
2009-11-19, 00:39:04,VALID,1002.69,VALID,0,VALID,86.5725,VALID,0,VALID,25.2611,VALID,316,VALID,0.476172,
2009-11-19, 00:40:04,VALID,1002.69,VALID,0,VALID,86.6641,VALID,0,VALID,25.2416,VALID,300,VALID,0.575391,
2009-11-19, 00:41:04,VALID,1002.67,VALID,0,VALID,86.6717,VALID,0,VALID,25.2416,VALID,274,VALID,0.765234,
2009-11-19, 00:42:04,VALID,1002.68,VALID,0,VALID,86.8472,VALID,0,VALID,25.2611,VALID,289,VALID,0.303516,
2009-11-19, 00:43:04,VALID,1002.69,VALID,0,VALID,86.7785,VALID,0,VALID,25.2202,VALID,268,VALID,0.778906,
2009-11-19, 00:44:04,VALID,1002.66,VALID,0,VALID,86.2064,VALID,0,VALID,25.2221,VALID,305,VALID,0.916016,
2009-11-19, 00:45:04,VALID,1002.64,VALID,0,VALID,86.4047,VALID,0,VALID,25.2416,VALID,305,VALID,0.428516,
2009-11-19, 00:46:04,VALID,1002.68,VALID,0,VALID,86.0538,VALID,0,VALID,25.2397,VALID,338,VALID,0.870313,
2009-11-19, 00:47:04,VALID,1002.65,VALID,0,VALID,85.9088,VALID,0,VALID,25.3,VALID,303,VALID,0.853125,
2009-11-19, 00:48:04,VALID,1002.65,VALID,0,VALID,85.7639,VALID,0,VALID,25.3176,VALID,313,VALID,0.930469,
2009-11-19, 00:49:04,VALID,1002.63,VALID,0,VALID,85.6037,VALID,0,VALID,25.3584,VALID,294,VALID,1.2293,
2009-11-19, 00:50:04,VALID,1002.64,VALID,0,VALID,85.474,VALID,0,VALID,25.3565,VALID,269,VALID,0.935547,
2009-11-19, 00:51:04,VALID,1002.6,VALID,0,VALID,85.474,VALID,0,VALID,25.4169,VALID,259,VALID,0.598828,
2009-11-19, 00:52:04,VALID,1002.57,VALID,0,VALID,85.4206,VALID,0,VALID,25.3955,VALID,288,VALID,0.858203,
2009-11-19, 00:53:04,VALID,1002.58,VALID,0,VALID,85.4816,VALID,0,VALID,25.4169,VALID,231,VALID,0.298047,
2009-11-19, 00:54:04,VALID,1002.54,VALID,0,VALID,85.4053,VALID,0,VALID,25.4149,VALID,254,VALID,0.513281,
2009-11-19, 00:55:04,VALID,1002.51,VALID,0,VALID,85.1841,VALID,0,VALID,25.4169,VALID,282,VALID,0.950391,
2009-11-19, 00:56:04,VALID,1002.53,VALID,0,VALID,85.3061,VALID,0,VALID,25.4363,VALID,302,VALID,0.944141,
2009-11-19, 00:57:04,VALID,1002.52,VALID,0,VALID,85.2299,VALID,0,VALID,25.3955,VALID,296,VALID,1.33398,
2009-11-19, 00:58:04,VALID,1002.52,VALID,0,VALID,85.2909,VALID,0,VALID,25.3974,VALID,289,VALID,1.91719,
2009-11-19, 00:59:04,VALID,1002.52,VALID,0,VALID,85.474,VALID,0,VALID,25.376,VALID,322,VALID,0.226172,
2009-11-19, 01:00:04,VALID,1002.51,VALID,0,VALID,85.5426,VALID,0,VALID,25.3565,VALID,288,VALID,1.68125,
2009-11-19, 01:01:04,VALID,1002.5,VALID,0,VALID,85.6342,VALID,0,VALID,25.337,VALID,292,VALID,1.5,
2009-11-19, 01:02:04,VALID,1002.48,VALID,0,VALID,85.7639,VALID,0,VALID,25.339,VALID,298,VALID,0.997656,
2009-11-19, 01:03:04,VALID,1002.46,VALID,0,VALID,85.9699,VALID,0,VALID,25.3195,VALID,283,VALID,0.646094,
2009-11-19, 01:04:04,VALID,1002.46,VALID,0,VALID,85.9622,VALID,0,VALID,25.2592,VALID,335,VALID,0.901172,
2009-11-19, 01:05:04,VALID,1002.41,VALID,0,VALID,86.1606,VALID,0,VALID,25.2806,VALID,285,VALID,0.736328,
2009-11-19, 01:06:05,VALID,1002.39,VALID,0,VALID,86.0995,VALID,0,VALID,25.2611,VALID,348,VALID,0.562109,
2009-11-19, 01:07:05,VALID,1002.39,VALID,0,VALID,86.2292,VALID,0,VALID,25.2202,VALID,296,VALID,1.38125,
2009-11-19, 01:08:05,VALID,1002.34,VALID,0,VALID,86.4657,VALID,0,VALID,25.2416,VALID,259,VALID,0.271094,
2009-11-19, 01:09:05,VALID,1002.33,VALID,0,VALID,86.214,VALID,0,VALID,25.2416,VALID,279,VALID,1.30625,
2009-11-19, 01:10:05,VALID,1002.3,VALID,0,VALID,86.0843,VALID,0,VALID,25.2202,VALID,301,VALID,0.886719,
2009-11-19, 01:11:05,VALID,1002.27,VALID,0,VALID,85.8859,VALID,0,VALID,25.2202,VALID,292,VALID,1.75586,
2009-11-19, 01:12:05,VALID,1002.25,VALID,0,VALID,85.4892,VALID,0,VALID,25.2806,VALID,290,VALID,1.65352,
2009-11-19, 01:13:05,VALID,1002.2,VALID,0,VALID,85.3672,VALID,0,VALID,25.3,VALID,301,VALID,0.621875,
2009-11-19, 01:14:05,VALID,1002.21,VALID,0,VALID,85.1688,VALID,0,VALID,25.3195,VALID,313,VALID,1.5293,
2009-11-19, 01:15:05,VALID,1002.17,VALID,0,VALID,85.1078,VALID,0,VALID,25.339,VALID,290,VALID,1.22109,
2009-11-19, 01:16:05,VALID,1002.19,VALID,0,VALID,85.207,VALID,0,VALID,25.339,VALID,335,VALID,0.379297,
2009-11-19, 01:17:05,VALID,1002.19,VALID,0,VALID,85.268,VALID,0,VALID,25.3195,VALID,296,VALID,0.978125,
2009-11-19, 01:18:05,VALID,1002.18,VALID,0,VALID,85.3672,VALID,0,VALID,25.339,VALID,272,VALID,0.389844,
2009-11-19, 01:19:05,VALID,1002.18,VALID,0,VALID,85.3367,VALID,0,VALID,25.2981,VALID,297,VALID,1.66445,
2009-11-19, 01:20:05,VALID,1002.19,VALID,0,VALID,85.4892,VALID,0,VALID,25.3,VALID,322,VALID,0.924609,
2009-11-19, 01:21:05,VALID,1002.17,VALID,0,VALID,85.5121,VALID,0,VALID,25.2786,VALID,314,VALID,0.942969,
2009-11-19, 01:22:05,VALID,1002.18,VALID,0,VALID,85.6494,VALID,0,VALID,25.3,VALID,280,VALID,0.778906,
2009-11-19, 01:23:05,VALID,1002.13,VALID,0,VALID,85.8859,VALID,0,VALID,25.2786,VALID,316,VALID,0.354688,
2009-11-19, 01:24:05,VALID,1002.11,VALID,0,VALID,85.8859,VALID,0,VALID,25.2806,VALID,290,VALID,0.655469,
2009-11-19, 01:25:05,VALID,1002.12,VALID,0,VALID,85.9851,VALID,0,VALID,25.2806,VALID,335,VALID,0.773438,
2009-11-19, 01:26:05,VALID,1002.13,VALID,0,VALID,85.9927,VALID,0,VALID,25.2611,VALID,283,VALID,1.3207,
2009-11-19, 01:27:05,VALID,1002.16,VALID,0,VALID,86.0767,VALID,0,VALID,25.2202,VALID,294,VALID,0.722656,
2009-11-19, 01:28:05,VALID,1002.15,VALID,0,VALID,86.275,VALID,0,VALID,25.2416,VALID,43,VALID,0.329688,
2009-11-19, 01:29:05,VALID,1002.16,VALID,0,VALID,86.2979,VALID,0,VALID,25.2416,VALID,284,VALID,1.77656,
2009-11-19, 01:30:05,VALID,1002.16,VALID,0,VALID,86.4657,VALID,0,VALID,25.2007,VALID,313,VALID,0.704687,
2009-11-19, 01:31:05,VALID,1002.16,VALID,0,VALID,86.5649,VALID,0,VALID,25.1832,VALID,315,VALID,0.565625,
2009-11-19, 01:32:05,VALID,1002.16,VALID,0,VALID,86.6336,VALID,0,VALID,25.1832,VALID,298,VALID,0.401563,
2009-11-19, 01:33:05,VALID,1002.14,VALID,0,VALID,86.7633,VALID,0,VALID,25.1637,VALID,313,VALID,0.766797,
2009-11-19, 01:34:05,VALID,1002.09,VALID,0,VALID,86.8243,VALID,0,VALID,25.1034,VALID,281,VALID,1.01992,
2009-11-19, 01:35:05,VALID,1002.02,VALID,0,VALID,86.8929,VALID,0,VALID,25.1248,VALID,293,VALID,0.817578,
2009-11-19, 01:36:05,VALID,1001.99,VALID,0,VALID,87.0913,VALID,0,VALID,25.1248,VALID,242,VALID,1.07227,
2009-11-19, 01:37:05,VALID,1001.98,VALID,0,VALID,86.9769,VALID,0,VALID,25.1248,VALID,286,VALID,0.8375,
2009-11-19, 01:38:05,VALID,1001.96,VALID,0,VALID,87.0989,VALID,0,VALID,25.1248,VALID,316,VALID,0.875781,
2009-11-19, 01:39:05,VALID,1001.96,VALID,0,VALID,87.1828,VALID,0,VALID,25.1248,VALID,282,VALID,0.401953,
2009-11-19, 01:40:05,VALID,1001.98,VALID,0,VALID,87.2439,VALID,0,VALID,25.1053,VALID,301,VALID,0.821484,
2009-11-19, 01:41:05,VALID,1001.94,VALID,0,VALID,87.3278,VALID,0,VALID,25.0839,VALID,284,VALID,0.641797,
2009-11-19, 01:42:05,VALID,1001.91,VALID,0,VALID,87.343,VALID,0,VALID,25.0644,VALID,298,VALID,1.20859,
2009-11-19, 01:43:05,VALID,1001.87,VALID,0,VALID,87.5567,VALID,0,VALID,25.0858,VALID,334,VALID,0.456641,
2009-11-19, 01:44:05,VALID,1001.85,VALID,0,VALID,87.6101,VALID,0,VALID,25.0644,VALID,302,VALID,0.128516,
2009-11-19, 01:45:05,VALID,1001.82,VALID,0,VALID,87.7092,VALID,0,VALID,25.0469,VALID,311,VALID,1.03633,
2009-11-19, 01:46:05,VALID,1001.78,VALID,0,VALID,87.9228,VALID,0,VALID,25.0469,VALID,307,VALID,0.636719,
2009-11-19, 01:47:05,VALID,1001.77,VALID,0,VALID,88.0754,VALID,0,VALID,25.006,VALID,274,VALID,0.370703,
2009-11-19, 01:48:05,VALID,1001.74,VALID,0,VALID,88.2509,VALID,0,VALID,25.0079,VALID,325,VALID,0.507813,
2009-11-19, 01:49:05,VALID,1001.71,VALID,0,VALID,88.3882,VALID,0,VALID,25.0079,VALID,314,VALID,0.814062,
2009-11-19, 01:50:05,VALID,1001.65,VALID,0,VALID,88.5026,VALID,0,VALID,24.9671,VALID,336,VALID,0.443359,
2009-11-19, 01:51:05,VALID,1001.62,VALID,0,VALID,88.6171,VALID,0,VALID,24.9671,VALID,285,VALID,1.06836,
2009-11-19, 01:52:05,VALID,1001.59,VALID,0,VALID,88.8154,VALID,0,VALID,24.9671,VALID,222,VALID,0.539844,
2009-11-19, 01:53:05,VALID,1001.6,VALID,0,VALID,88.7239,VALID,0,VALID,24.9476,VALID,293,VALID,0.713281,
2009-11-19, 01:54:05,VALID,1001.58,VALID,0,VALID,88.8536,VALID,0.100563,VALID,24.969,VALID,292,VALID,0.021875,
2009-11-19, 01:55:05,VALID,1001.61,VALID,0,VALID,88.907,VALID,0,VALID,24.9885,VALID,270,VALID,0.596875,
2009-11-19, 01:56:05,VALID,1001.62,VALID,0,VALID,88.8993,VALID,0,VALID,24.9671,VALID,298,VALID,1.23711,
2009-11-19, 01:57:05,VALID,1001.62,VALID,0,VALID,88.9451,VALID,0,VALID,24.9671,VALID,324,VALID,0.532031,
2009-11-19, 01:58:05,VALID,1001.62,VALID,0,VALID,88.9985,VALID,0,VALID,24.969,VALID,335,VALID,0.461328,
2009-11-19, 01:59:05,VALID,1001.6,VALID,0,VALID,89.0367,VALID,0,VALID,24.969,VALID,298,VALID,0.644531,
2009-11-19, 02:00:05,VALID,1001.61,VALID,0,VALID,89.1206,VALID,0,VALID,24.969,VALID,298,VALID,0.211719,
2009-11-19, 02:01:05,VALID,1001.6,VALID,0,VALID,89.1816,VALID,0,VALID,24.9282,VALID,301,VALID,0.544141,
2009-11-19, 02:02:05,VALID,1001.59,VALID,0,VALID,89.2503,VALID,0,VALID,24.9282,VALID,315,VALID,0.0371094,
2009-11-19, 02:03:05,VALID,1001.6,VALID,0,VALID,89.3189,VALID,0,VALID,24.9068,VALID,315,VALID,0.469141,
2009-11-19, 02:04:05,VALID,1001.58,VALID,0,VALID,89.3494,VALID,0,VALID,24.9087,VALID,314,VALID,0.396484,
2009-11-19, 02:05:05,VALID,1001.59,VALID,0,VALID,89.3647,VALID,0,VALID,24.93,VALID,312,VALID,0.288281,
2009-11-19, 02:06:05,VALID,1001.59,VALID,0,VALID,89.3571,VALID,0,VALID,24.8892,VALID,311,VALID,0.566797,
2009-11-19, 02:07:05,VALID,1001.58,VALID,0,VALID,89.3952,VALID,0,VALID,24.9106,VALID,310,VALID,0.0539063,
2009-11-19, 02:08:05,VALID,1001.52,VALID,0,VALID,89.4639,VALID,0,VALID,24.9087,VALID,322,VALID,0.383594,
2009-11-19, 02:09:05,VALID,1001.54,VALID,0,VALID,89.5097,VALID,0,VALID,24.9106,VALID,328,VALID,0.0410156,
2009-11-19, 02:10:05,VALID,1001.52,VALID,0,VALID,89.5707,VALID,0,VALID,24.8892,VALID,338,VALID,0.494531,
2009-11-19, 02:11:05,VALID,1001.52,VALID,0,VALID,89.6775,VALID,0,VALID,24.8892,VALID,299,VALID,0.317969,
2009-11-19, 02:12:05,VALID,1001.51,VALID,0,VALID,89.6927,VALID,0,VALID,24.8892,VALID,359,VALID,0.639844,
2009-11-19, 02:13:05,VALID,1001.5,VALID,0,VALID,89.7233,VALID,0,VALID,24.8892,VALID,352,VALID,0.563672,
2009-11-19, 02:14:05,VALID,1001.49,VALID,0,VALID,89.7461,VALID,0,VALID,24.8911,VALID,353,VALID,0.607422,
2009-11-19, 02:15:05,VALID,1001.44,VALID,0,VALID,89.8072,VALID,0,VALID,24.8697,VALID,351,VALID,0.721094,
2009-11-19, 02:16:05,VALID,1001.44,VALID,0,VALID,89.8301,VALID,0,VALID,24.8522,VALID,350,VALID,0.647266,
2009-11-19, 02:17:05,VALID,1001.43,VALID,0,VALID,89.914,VALID,0,VALID,24.8327,VALID,350,VALID,0.440234,
2009-11-19, 02:18:05,VALID,1001.38,VALID,0,VALID,90.0284,VALID,0,VALID,24.7919,VALID,350,VALID,0.528125,
2009-11-19, 02:19:05,VALID,1001.37,VALID,0,VALID,90.0971,VALID,0,VALID,24.7529,VALID,349,VALID,0.460938,
2009-11-19, 02:20:05,VALID,1001.4,VALID,0,VALID,90.2268,VALID,0,VALID,24.7548,VALID,347,VALID,0.536328,
2009-11-19, 02:21:05,VALID,1001.4,VALID,0,VALID,90.3259,VALID,0,VALID,24.7335,VALID,346,VALID,0.351563,
2009-11-19, 02:22:05,VALID,1001.41,VALID,0,VALID,90.4251,VALID,0,VALID,24.7335,VALID,346,VALID,0.236328,
2009-11-19, 02:23:05,VALID,1001.43,VALID,0,VALID,90.5548,VALID,0,VALID,24.7548,VALID,348,VALID,0.7875,
2009-11-19, 02:24:05,VALID,1001.43,VALID,0,VALID,90.6235,VALID,0,VALID,24.7335,VALID,344,VALID,0.483594,
2009-11-19, 02:25:05,VALID,1001.43,VALID,0,VALID,90.6235,VALID,0,VALID,24.7529,VALID,345,VALID,0.494922,
2009-11-19, 02:26:05,VALID,1001.41,VALID,0,VALID,90.5853,VALID,0,VALID,24.7724,VALID,350,VALID,0.664063,
2009-11-19, 02:27:05,VALID,1001.46,VALID,0,VALID,90.5243,VALID,0,VALID,24.7919,VALID,355,VALID,0.670313,
2009-11-19, 02:28:05,VALID,1001.44,VALID,0,VALID,90.387,VALID,0,VALID,24.8113,VALID,357,VALID,0.536328,
2009-11-19, 02:29:05,VALID,1001.43,VALID,0,VALID,90.3412,VALID,0,VALID,24.8308,VALID,350,VALID,0.319141,
2009-11-19, 02:30:05,VALID,1001.44,VALID,0,VALID,90.2802,VALID,0,VALID,24.8911,VALID,344,VALID,0.494141,
2009-11-19, 02:31:05,VALID,1001.46,VALID,0,VALID,90.1581,VALID,0,VALID,24.9106,VALID,353,VALID,0.749609,
2009-11-19, 02:32:05,VALID,1001.45,VALID,0,VALID,89.9826,VALID,0,VALID,24.9282,VALID,325,VALID,0.197656,
2009-11-19, 02:33:05,VALID,1001.47,VALID,0,VALID,89.8758,VALID,0,VALID,24.9476,VALID,348,VALID,0.648047,
2009-11-19, 02:34:05,VALID,1001.48,VALID,0,VALID,89.7767,VALID,0,VALID,24.9671,VALID,319,VALID,0.253516,
2009-11-19, 02:35:05,VALID,1001.48,VALID,0,VALID,89.7996,VALID,0,VALID,25.0079,VALID,315,VALID,0.0046875,
2009-11-19, 02:36:05,VALID,1001.5,VALID,0,VALID,89.7233,VALID,0.100563,VALID,24.9866,VALID,315,VALID,0,
2009-11-19, 02:37:05,VALID,1001.47,VALID,0,VALID,89.6165,VALID,0,VALID,25.006,VALID,297,VALID,0.190625,
2009-11-19, 02:38:05,VALID,1001.47,VALID,0,VALID,89.5859,VALID,0,VALID,25.0274,VALID,322,VALID,0.375391,
2009-11-19, 02:39:05,VALID,1001.44,VALID,0,VALID,89.5097,VALID,0,VALID,25.006,VALID,340,VALID,0.145313,
2009-11-19, 02:40:05,VALID,1001.43,VALID,0,VALID,89.3723,VALID,0,VALID,25.0469,VALID,12,VALID,0.819141,
2009-11-19, 02:41:05,VALID,1001.45,VALID,0,VALID,89.1664,VALID,0,VALID,25.0469,VALID,353,VALID,0.692969,
2009-11-19, 02:42:05,VALID,1001.41,VALID,0,VALID,89.0367,VALID,0,VALID,25.0644,VALID,326,VALID,0.316797,
2009-11-19, 02:43:05,VALID,1001.41,VALID,0,VALID,88.9604,VALID,0,VALID,25.0663,VALID,30,VALID,0.300391,
2009-11-19, 02:44:05,VALID,1001.41,VALID,0,VALID,88.8993,VALID,0,VALID,25.0858,VALID,26,VALID,0.2125,
2009-11-19, 02:45:05,VALID,1001.39,VALID,0,VALID,88.8765,VALID,0,VALID,25.0858,VALID,26,VALID,0.0691406,
2009-11-19, 02:46:05,VALID,1001.36,VALID,0,VALID,88.8002,VALID,0,VALID,25.0858,VALID,22,VALID,0.0984375,
2009-11-19, 02:47:05,VALID,1001.37,VALID,0,VALID,88.6705,VALID,0,VALID,25.1053,VALID,336,VALID,0.530859,
2009-11-19, 02:48:05,VALID,1001.38,VALID,0,VALID,88.6323,VALID,0,VALID,25.1053,VALID,357,VALID,0.8125,
2009-11-19, 02:49:05,VALID,1001.38,VALID,0,VALID,88.5866,VALID,0,VALID,25.1053,VALID,327,VALID,0.628906,
2009-11-19, 02:50:05,VALID,1001.4,VALID,0,VALID,88.4187,VALID,0,VALID,25.1053,VALID,346,VALID,0.667578,
2009-11-19, 02:51:05,VALID,1001.37,VALID,0,VALID,88.2738,VALID,0,VALID,25.1461,VALID,357,VALID,0.883984,
2009-11-19, 02:52:05,VALID,1001.38,VALID,0,VALID,88.2509,VALID,0,VALID,25.1461,VALID,342,VALID,0.578125,
2009-11-19, 02:53:05,VALID,1001.37,VALID,0,VALID,88.495,VALID,0,VALID,25.1461,VALID,333,VALID,0,
2009-11-19, 02:54:05,VALID,1001.39,VALID,0,VALID,88.5789,VALID,0,VALID,25.1461,VALID,347,VALID,0.548437,
2009-11-19, 02:55:05,VALID,1001.33,VALID,0,VALID,88.5026,VALID,0,VALID,25.1248,VALID,350,VALID,0.501953,
2009-11-19, 02:56:05,VALID,1001.32,VALID,0,VALID,88.3043,VALID,0,VALID,25.1461,VALID,357,VALID,0.776563,
2009-11-19, 02:57:05,VALID,1001.32,VALID,0,VALID,88.0525,VALID,0,VALID,25.1248,VALID,342,VALID,1.04648,
2009-11-19, 02:58:05,VALID,1001.29,VALID,0,VALID,88.1746,VALID,0,VALID,25.1832,VALID,344,VALID,0.609375,
2009-11-19, 02:59:05,VALID,1001.31,VALID,0,VALID,88.1059,VALID,0,VALID,25.1618,VALID,344,VALID,0.485156,
2009-11-19, 03:00:05,VALID,1001.28,VALID,0,VALID,88.4111,VALID,0,VALID,25.1618,VALID,357,VALID,0.232812,
2009-11-19, 03:01:05,VALID,1001.3,VALID,0,VALID,88.6323,VALID,0,VALID,25.1832,VALID,357,VALID,0.417578,
2009-11-19, 03:02:05,VALID,1001.32,VALID,0,VALID,88.7086,VALID,0,VALID,25.1813,VALID,253,VALID,0.425391,
2009-11-19, 03:03:05,VALID,1001.29,VALID,0,VALID,88.7086,VALID,0,VALID,25.1813,VALID,309,VALID,0.36875,
2009-11-19, 03:04:05,VALID,1001.31,VALID,0,VALID,88.8078,VALID,0,VALID,25.1813,VALID,309,VALID,0.222266,
2009-11-19, 03:05:05,VALID,1001.29,VALID,0,VALID,88.8078,VALID,0,VALID,25.2007,VALID,301,VALID,0.188281,
2009-11-19, 03:06:05,VALID,1001.33,VALID,0,VALID,88.4569,VALID,0,VALID,25.2007,VALID,286,VALID,0.693359,
2009-11-19, 03:07:05,VALID,1001.32,VALID,0,VALID,88.2585,VALID,0,VALID,25.2221,VALID,339,VALID,0.719141,
2009-11-19, 03:08:05,VALID,1001.31,VALID,0,VALID,87.9762,VALID,0,VALID,25.2221,VALID,353,VALID,0.34375,
2009-11-19, 03:09:05,VALID,1001.31,VALID,0,VALID,88.022,VALID,0,VALID,25.2416,VALID,283,VALID,0.834766,
2009-11-19, 03:10:05,VALID,1001.33,VALID,0,VALID,87.9839,VALID,0,VALID,25.2416,VALID,331,VALID,0.418359,
2009-11-19, 03:11:05,VALID,1001.33,VALID,0,VALID,88.0068,VALID,0,VALID,25.2202,VALID,331,VALID,0.293359,
2009-11-19, 03:12:05,VALID,1001.36,VALID,0,VALID,88.2814,VALID,0,VALID,25.2221,VALID,351,VALID,0.369141,
2009-11-19, 03:13:05,VALID,1001.4,VALID,0,VALID,88.5026,VALID,0.100563,VALID,25.2416,VALID,355,VALID,0.237109,
2009-11-19, 03:14:05,VALID,1001.38,VALID,0,VALID,88.5026,VALID,0.100563,VALID,25.2221,VALID,355,VALID,0.146875,
2009-11-19, 03:15:05,VALID,1001.4,VALID,0,VALID,88.4187,VALID,0,VALID,25.2221,VALID,355,VALID,0.228516,
2009-11-19, 03:16:05,VALID,1001.44,VALID,0,VALID,88.4492,VALID,0,VALID,25.2221,VALID,352,VALID,0.363672,
2009-11-19, 03:17:05,VALID,1001.49,VALID,0,VALID,88.3043,VALID,0,VALID,25.2221,VALID,298,VALID,0.344531,
2009-11-19, 03:18:05,VALID,1001.5,VALID,0,VALID,88.5103,VALID,0,VALID,25.2435,VALID,268,VALID,0.257813,
2009-11-19, 03:19:05,VALID,1001.5,VALID,0,VALID,88.5637,VALID,0,VALID,25.2202,VALID,268,VALID,0.00429688,
2009-11-19, 03:20:05,VALID,1001.51,VALID,0,VALID,88.4264,VALID,0,VALID,25.2007,VALID,268,VALID,0,
2009-11-19, 03:21:05,VALID,1001.54,VALID,0,VALID,88.7544,VALID,0,VALID,25.2007,VALID,268,VALID,0.362891,
2009-11-19, 03:22:05,VALID,1001.54,VALID,0,VALID,88.9146,VALID,0.100563,VALID,25.2007,VALID,268,VALID,0,
2009-11-19, 03:23:05,VALID,1001.54,VALID,0,VALID,89.0519,VALID,0,VALID,25.1832,VALID,268,VALID,0.243359,
2009-11-19, 03:24:05,VALID,1001.54,VALID,0,VALID,89.1435,VALID,0,VALID,25.1813,VALID,268,VALID,0.64375,
2009-11-19, 03:25:05,VALID,1001.6,VALID,0,VALID,88.9909,VALID,0,VALID,25.1618,VALID,331,VALID,0.55,
2009-11-19, 03:26:05,VALID,1001.56,VALID,0,VALID,88.8002,VALID,0,VALID,25.1813,VALID,331,VALID,0.786719,
2009-11-19, 03:27:05,VALID,1001.6,VALID,0,VALID,88.5866,VALID,0,VALID,25.2221,VALID,347,VALID,1.32148,
2009-11-19, 03:28:05,VALID,1001.6,VALID,0,VALID,87.9152,VALID,0.100563,VALID,25.2592,VALID,328,VALID,0.872656,
2009-11-19, 03:29:05,VALID,1001.59,VALID,0,VALID,87.8771,VALID,0.100563,VALID,25.337,VALID,21,VALID,0.0949219,
2009-11-19, 03:30:05,VALID,1001.61,VALID,0,VALID,87.8084,VALID,0,VALID,25.3974,VALID,307,VALID,0.647266,
2009-11-19, 03:31:05,VALID,1001.61,VALID,0,VALID,87.549,VALID,0,VALID,25.3955,VALID,329,VALID,0.577734,
2009-11-19, 03:32:05,VALID,1001.64,VALID,0,VALID,87.3659,VALID,0,VALID,25.4344,VALID,268,VALID,0.339063,
2009-11-19, 03:33:05,VALID,1001.64,VALID,0,VALID,86.9616,VALID,0,VALID,25.4928,VALID,310,VALID,0.401172,
2009-11-19, 03:34:05,VALID,1001.66,VALID,0,VALID,86.8548,VALID,0,VALID,25.5318,VALID,259,VALID,0.180859,
2009-11-19, 03:35:05,VALID,1001.66,VALID,0,VALID,86.4352,VALID,0.100563,VALID,25.5707,VALID,325,VALID,0.462109,
2009-11-19, 03:36:05,VALID,1001.66,VALID,0,VALID,86.2369,VALID,0,VALID,25.6506,VALID,320,VALID,0.267578,
2009-11-19, 03:37:05,VALID,1001.71,VALID,0,VALID,86.1301,VALID,0,VALID,25.6486,VALID,318,VALID,0.0800781,
2009-11-19, 03:38:05,VALID,1001.72,VALID,0,VALID,85.8325,VALID,0,VALID,25.709,VALID,318,VALID,0,
2009-11-19, 03:39:05,VALID,1001.74,VALID,0,VALID,85.8859,VALID,0,VALID,25.7285,VALID,287,VALID,0.4875,
2009-11-19, 03:40:05,VALID,1001.78,VALID,0,VALID,85.68,VALID,0,VALID,25.7265,VALID,233,VALID,0.449219,
2009-11-19, 03:41:05,VALID,1001.78,VALID,0,VALID,85.6113,VALID,0,VALID,25.7655,VALID,288,VALID,0.573047,
2009-11-19, 03:42:05,VALID,1001.8,VALID,0,VALID,85.7486,VALID,0,VALID,25.8843,VALID,273,VALID,0.575781,
2009-11-19, 03:43:05,VALID,1001.81,VALID,0,VALID,85.6876,VALID,0,VALID,25.8823,VALID,305,VALID,1.19414,
2009-11-19, 03:44:05,VALID,1001.8,VALID,0,VALID,85.8554,VALID,0,VALID,25.9213,VALID,308,VALID,0.436328,